Location: Melbourne
(37.8170°S, 144.9670°E)
Time: 23:57:06
(UTC+10:00)

Daily predictions for brighter satellites

Satellite Brightness Start Highest point End
(mag) Time Altitude Azimuth Time Altitude Azimuth Time Altitude Azimuth
CSL-04 Rocket 3.9 18:33:08 10° SSE 18:38:44 85° WSW 18:44:18 10° NNW
MSX 4.4 18:34:27 10° S 18:40:15 67° WSW 18:45:58 10° NNW
CZ-2C R/B 3.9 18:36:24 10° S 18:41:24 46° WSW 18:46:17 10° NW
IRS-1A Rocket 4.3 18:37:56 10° SSE 18:43:25 57° ENE 18:48:50 10° N
Cosmos 2184 Rocket 4.1 18:39:08 10° S 18:45:15 54° E 18:51:19 10° NNE
Cosmos 2082 Rocket 3.0 18:43:10 10° S 18:48:09 30° ESE 18:53:05 10° ENE
Helios 1B rocket 4.4 18:49:36 10° E 18:51:18 12° ESE 18:53:00 10° SE
Tiangong 1 1.2 18:48:33 10° WSW 18:51:20 55° NNW 18:54:02 10° NE
AQUARIUS 4.5 18:49:23 10° S 18:53:58 74° WSW 18:58:28 10° NNW
Cosmos 1766 3.4 18:53:12 10° S 18:57:14 55° E 19:01:12 10° NNE
ASTRO E2 4.1 18:55:38 10° NW 18:58:57 25° NNE 19:01:50 12° ENE
Cosmos 1602 Rocket 3.6 18:57:02 10° N 19:01:28 64° E 19:05:59 10° SSE
Cosmos 540 Rocket 4.4 18:58:00 10° SSW 19:03:03 52° WNW 19:08:01 10° N
SPOT 3 Rocket 3.8 18:58:36 10° SSE 19:03:38 46° E 19:08:34 10° N
NOSS 2-1 (C) 4.4 18:58:02 10° SSW 19:05:20 89° WNW 19:10:34 10° NNE
NOSS 2-1 (D) 4.4 18:58:14 10° SSW 19:05:29 87° WNW 19:10:42 10° NNE
DELTA 2 R/B (1) 3.8 19:03:31 10° WSW 19:09:07 68° NNW 19:13:53 14° ENE
SMAP 4.1 19:04:40 10° S 19:09:16 51° WSW 19:13:47 10° NNW
BREEZE-M R/B 4.4 19:04:24 10° SW 19:09:39 29° S 19:12:06 15° ESE
Cosmos 1626 Rocket 3.6 19:07:11 10° N 19:11:40 89° W 19:16:14 10° S
CZ-4 R/B 2.5 19:08:09 10° S 19:11:58 47° WSW 19:15:46 10° NNW
MOS 1 4.2 19:10:03 10° SSE 19:15:48 71° ENE 19:21:27 10° N
Cosmos 292 Rocket 3.8 19:11:44 10° SSW 19:16:35 87° WNW 19:21:25 10° NNE
ATLAS 5 CENTAUR R/B 2.4 19:12:44 10° SW 19:17:47 58° WNW 19:22:21 10° NNE
Cosmos 1184 Rocket 3.6 19:15:22 10° NNE 19:18:26 32° E 19:21:32 10° SSE
Cosmos 1842 3.2 19:16:25 10° N 19:20:21 88° W 19:24:20 10° S
ERBS 3.0 19:17:20 10° NNW 19:20:31 34° NE 19:21:51 25° E
ATLAS CENTAUR R/B 3.2 19:16:35 10° WNW 19:20:53 38° SW 19:25:25 10° SSE
Meteor 2-19 Rocket 4.4 19:22:26 10° S 19:28:39 77° E 19:34:45 10° NNE
Abrixas 2.9 19:30:13 10° NW 19:32:07 35° N 19:32:07 35° N
Cosmos 773 Rocket 4.2 19:30:19 10° S 19:35:31 53° ESE 19:38:42 23° NE
Lacrosse 5 rocket 3.4 19:33:06 10° SSW 19:36:23 18° SSE 19:37:39 17° SE
Cosmos 1805 3.3 19:32:26 10° S 19:36:28 83° W 19:40:25 10° N
Cosmos 1825 Rocket 3.7 19:33:59 10° N 19:38:22 54° E 19:42:48 10° SSE
ALOS 2.2 19:34:16 10° SSE 19:39:01 68° ENE 19:43:41 10° N
SL-27 R/B 4.5 19:38:08 10° SW 19:41:08 28° WNW 19:44:08 10° NNW
SJ-6B 4.1 19:42:23 10° SSE 19:44:40 26° SE 19:44:40 26° SE
Cosmos 1953 2.2 19:42:45 10° S 19:46:49 70° E 19:48:35 31° NNE
Cosmos 1707 4.5 19:51:27 20° SE 19:51:27 20° SE 19:52:53 10° SSE
Cosmos 2154 Rocket 4.0 19:43:42 10° S 19:50:01 84° W 19:56:14 10° N
Cosmos 1733 3.4 19:46:41 10° S 19:50:18 49° ESE 19:50:18 49° ESE
Atlas Centaur 2 3.7 19:44:03 10° W 19:50:59 40° NNW 19:55:27 23° NE
Cosmos 1470 3.1 19:47:11 10° S 19:50:37 44° ESE 19:50:37 44° ESE
FENGYUN 3A 3.5 19:46:08 10° SSE 19:51:35 80° ENE 19:56:58 10° N
COSMOS 2455 3.2 19:45:42 10° NW 19:51:41 67° WSW 19:57:44 10° SSE
SeaSat 1 3.2 19:55:49 34° ESE 19:56:09 34° ESE 20:00:37 10° S
Cosmos 2341 Rocket 3.9 19:50:02 10° S 19:56:26 77° E 20:02:26 11° N
Meteor 2-5 Rocket 4.0 19:58:42 41° E 19:58:42 41° E 20:03:50 10° SSE
Cosmos 1340 Rocket 3.9 20:00:45 31° SSE 20:00:45 31° SSE 20:03:06 10° SSE
CENTAUR R/B 3.3 19:52:08 10° NW 20:00:10 67° SW 20:07:21 10° SSE
COSMOS 2487 3.1 20:04:34 10° SSW 20:07:17 49° S 20:07:17 49° S
Cosmos 1758 Rocket 3.5 20:05:06 10° N 20:09:37 89° WSW 20:14:08 10° S
Lacrosse 4 Rocket 2.9 20:08:38 10° SW 20:12:34 35° WNW 20:14:56 20° NNW
Meteor 1-16 Rocket 4.5 20:07:57 10° S 20:13:45 50° ESE 20:13:49 50° E
USA 81 4.2 20:10:22 10° N 20:15:40 73° W 20:21:01 10° S
Delta 2 Rocket 4.2 20:12:50 10° W 20:15:02 36° WNW 20:15:02 36° WNW
Timation 2 Rocket 3.7 20:11:39 10° SSW 20:17:45 78° ESE 20:19:03 56° NE
Cosmos 1833 Rocket 3.6 20:13:01 10° SW 20:18:26 47° WNW 20:22:26 18° N
OAO 1 Rocket 4.4 20:14:50 10° W 20:20:08 66° N 20:20:21 66° NNE
Cosmos 2181 Rocket 4.1 20:16:24 10° NNW 20:22:32 72° W 20:28:48 10° S
H-2A R/B 3.9 20:19:26 10° S 20:21:52 36° S 20:21:52 36° S
Helios 1B rocket 3.1 20:25:39 51° NW 20:26:06 53° W 20:30:13 10° SSW
Cosmos 1959 Rocket 4.3 20:22:25 10° S 20:28:37 71° E 20:29:04 68° ENE
Cosmos 2218 Rocket 3.9 20:22:29 10° S 20:28:59 73° E 20:29:53 64° NE
Milstar 3 4.4 20:08:12 10° WNW 20:29:50 55° N 20:34:33 41° NE
Cosmos 2366 rocket 3.9 20:24:09 10° S 20:30:31 67° E 20:30:44 66° E
Cosmos 2082 Rocket 3.6 20:27:08 10° SW 20:32:13 35° WNW 20:36:02 16° NNW
SL-08 R/B 4.5 20:26:37 10° S 20:33:07 67° E 20:33:14 67° E
GP-B 3.7 20:36:47 56° W 20:36:47 56° W 20:41:06 10° S
Cosmos 923 Rocket 4.1 20:32:05 10° SSW 20:37:21 73° WNW 20:37:23 73° WNW
Cosmos-2242 4.4 20:35:35 10° S 20:38:07 34° S 20:38:07 34° S
Cosmos 1680 Rocket 3.7 20:36:55 10° SSW 20:41:34 68° SSW 20:41:34 68° SSW
Cosmos 1867 4.4 20:44:50 10° SW 20:49:55 42° WNW 20:50:21 41° NW
BREEZE M DEB (TANK) 4.0 20:47:19 10° WNW 21:00:24 51° SW 21:01:20 46° S
Lacrosse 5 rocket 3.8 21:11:28 10° SW 21:13:22 24° SW 21:13:22 24° SW
